Location: B?dimalle
(17.1788°N, 80.5377°E)
Time: 00:51:39
(UTC+00:00)

Injun/Solrad 3 - Pass Details

Date: 23 February 2026
Orbit: 872 x 984 km, 66.8° (Epoch: 7 March)

Event Time Altitude Azimuth Distance (km) Brightness Sun altitude
Rises 15:54:30 0° 309° (NW) 3,642 11.5 -46.5°
Reaches altitude 10° 15:58:11 10° 288° (WNW) 2,711 10.8 -47.4°
Enters shadow 16:00:39 15° 265° (W) 2,384 10.5 -47.9°
